Flag for Peru Weather past 2 weeks in Iquitos, Loreto, Peru

Now
79 °F

Passing clouds.


Feels Like: 82 °F
Forecast: 73 / 85 °F
Wind: 2 mph from North

Location: Iquitos Airport

Current Time: Apr 1, 2015 at 9:16:32 PM

Latest Report: Apr 1, 2015 at 8:00 PM


Visibility: N/A

Pressure: 29.86 "Hg

Humidity: 89%

Dew point: 75 °F

Location of IquitosLocation

Historic Weather in Iquitos — Graph

°F

Iquitos temperature yesterday

Maximum temperature yesterday: 90 °F (at 3:00 PM)
Minimum temperature yesterday: 73 °F (at 12:00 AM)
Average temperature yesterday: 80 °F

Past Weeks' High & Low Weather Summary

 TemperatureHumidityPressure
High93 °F (Apr 1, 3:00 PM)100% (Mar 19, 9:00 PM)30.04 "Hg (Mar 19, 9:00 PM)
Low70 °F (Mar 22, 4:00 PM)52% (Apr 1, 2:00 PM)29.71 "Hg (Mar 27, 4:00 PM)
Average78 °F86%29.88 "Hg
* Reported Mar 17 8:00 PM — Apr 1 8:00 PM, Iquitos, Weather by CustomWeather, © 2015

Note: Actual official high and low records may vary slightly from our data, if they occured in-between our weather recording intervals... More about our weather records

Advertising

Iquitos weather history for previous 24 hours

 ConditionsComfort  
Time TempWeatherWind HumidityBarometerVisibility
8:00 PM
Wed, Apr 1
79 °FPassing clouds.2 mph89%29.86 "HgN/A
7:00 PM79 °FPassing clouds.2 mph89%29.83 "HgN/A
6:00 PM81 °FPassing clouds.2 mph84%29.77 "HgN/A
5:00 PM82 °FScattered clouds.3 mph79%29.74 "HgN/A
4:00 PM84 °FScattered clouds.10 mph70%29.77 "HgN/A
3:00 PM93 °FScattered showers. Partly sunny.7 mph53%29.77 "HgN/A
2:00 PM91 °FPartly sunny.5 mph52%29.80 "HgN/A
1:00 PM91 °FPartly sunny.6 mph59%29.86 "HgN/A
12:00 PM91 °FPartly sunny.6 mph59%29.89 "HgN/A
11:00 AM88 °FPartly sunny.5 mph66%29.92 "HgN/A
10:00 AM88 °FBroken clouds.7 mph66%29.95 "HgN/A
9:00 AM84 °FScattered clouds.8 mph74%29.92 "HgN/A
8:00 AM82 °FPassing clouds.6 mph79%29.92 "HgN/A
7:00 AM77 °FPartly sunny.No wind94%29.89 "HgN/A
6:00 AM75 °FPartly sunny.No wind94%29.86 "HgN/A
5:00 AM75 °FPassing clouds.No wind94%29.86 "HgN/A
4:00 AM75 °FPassing clouds.No wind94%29.86 "HgN/A
3:00 AM75 °FPassing clouds.No wind94%29.86 "HgN/A
2:00 AM75 °FPassing clouds.No wind94%29.86 "HgN/A
1:00 AM75 °FPassing clouds.No wind94%29.89 "HgN/A
12:00 AM77 °FClear.No wind89%29.92 "Hg10 mi
11:00 PM
Tue, Mar 31
77 °FClear.No wind89%29.92 "Hg10 mi
10:00 PM77 °FClear.No wind89%29.89 "Hg10 mi
9:00 PM79 °FClear.No wind89%29.86 "Hg10 mi
Weather by CustomWeather, © 2015

See weather overviewHow to use our weather pages